YFRT

Details ICAO YFRT
Name Forrest
Region Australia
Timezone Australia/Perth (UTC+8.0)
Plans Departing 6
Arriving 12
Stats Elevation 510 ft / 155 m (AMSL)
Location -30.838180° 128.114817°
Runways 2
Magnetic Variation 3.269° E
Sunrise 2018-05-23 22:13:39 UTC / 2018-05-24 06:13:39 Local
Sunset 2018-05-24 08:37:55 UTC / 2018-05-24 16:37:55 Local
Advertisement - Login to hide

Runways

ID Width Length Bearing (true) Bearing (mag) Surface Threshold Offset Overrun Length
18 148 ft / 45 m 4,999 ft / 1,524 m 179.60° 176.33° Asphalt 0 ft / 0 m 66 ft / 20 m
27 164 ft / 50 m 4,477 ft / 1,365 m 273.80° 270.53° Asphalt 0 ft / 0 m 26 ft / 8 m
36 148 ft / 45 m 4,999 ft / 1,524 m 359.60° 356.33° Asphalt 0 ft / 0 m 59 ft / 18 m
9 164 ft / 50 m 4,477 ft / 1,365 m 93.81° 90.54° Asphalt 0 ft / 0 m 62 ft / 19 m

Map

Weather


0- 5 10 15 20 25 30 35+ Temperature / ° C

Clouds and Precipitation
Forecast for 2018-05-24 00:00 UTC. Updated 2 hours ago

Ground ~20,000 ft ~40,000 ft Winds

METAR

YFRT 240100Z AUTO 04010KT //// // ////// 16/07 Q1025

TAF

TAF YFRT 240042Z 2402/2414 04012G20KT CAVOK FM240900 08008KT CAVOK

Frequencies

Recorded 132.69 MHz MELBOURNE CNTR FSS
Unicom 126.70 MHz CTAF UNICOM UNIC
Warning: Do not use this data for real-world aviation or navigation. No guarantee of current accuracy is given.